STARLINK-1134, 45048

Orbit data source: Space-Track

STARLINK-1134, 45048 is a payload satellite owned by SpaceX/Seattle (US) in LEO that was launched on Wed, 29 Jan 2020 UTC via an FALCON 9 launch vehicle from the Air Force Eastern Test Range (AFETR). Payload-class satellites include a variety of spacecraft equipped with specific instruments for various scientific and technological missions. These include communications satellites like Starlink; space stations such as the ISS; scientific satellites like the Hubble; Earth observation satellites from companies like Planet Labs, Umbra, and HawkEye 360; GPS; miniature CubeSats for education and research; and military/defense satellites.

Loading next visibility...
Identifier
45048, 2020-006E
Orbit
LEO
Country
Flag of USUS
Related business
Manufacturer
SpaceX/Seattle
Mission
Partially operational Commercial Communications
Bus & Motor
STARLINK, Unknown motor
Mass
260 kg wet, ~248 kg dry
Launch date (UTC)
2020-01-29 (6 years ago)
Launch vehicle
FALCON 9
Launch site
Air Force Eastern Test Range (AFETR)
Object type
Payload
Rocket body
Debris
Shape & HBR
Box + 1 Pan, 10.1 m
Radar Cross Section
13.562 m², Large (>1 m²)

Expand to show TLE details & history
Last TLE update: 15 hours ago

TLE from 15 hours ago
0 STARLINK-1134
1 45048U 20006E   26170.55707465  .00105781  00000-0  12275-2 0  9995
2 45048  53.0236 108.4124 0007654 113.1871 246.9948 15.60950714352950
Epoch: 2026-06-19T13:22Z
TLE epoch observation values (Epoch: 2026-06-19T13:22:11.249Z)
Latitude
-0.00006°
Longitude
0.08114°
Altitude
387.833 km
Speed
7.677 km/s
True Right ascension
07h 13m 38s
True Declination
0° 00' 00"
Sunlit
Object was in daylight at epoch
Visualization orbit readout
Latitude
Unknown
Longitude
Unknown
Altitude
Unknown
Speed
Unknown
Apparent Right ascension
Unknown
Apparent Declination
Unknown
Sunlit
N/A
Visualization observer readout
Local Sidereal Time
15:19:08
Azimuth
Unknown
Elevation
Unknown
Doppler factor
Unknown
Orbital elements
Apogee altitude
390.368 km
Perigee altitude
380.015 km
Semi-major axis
6,763.329 km
Eccentricity
0.00077
Inclination
53.0236°
RAAN
108.4124°
Arg. of periapsis
113.1871°
True anomaly
246.9141°
Mean anomaly
246.9948°
Eccentric anomaly
246.95445°
Mean motion
3.90214 °/min
Orbital period
92.26 mins
BSTAR
0.0012275
Loading maneuver chart data...
Computing Atmospheric mass density...

Documentation

Showing up to 5 results
|